Regional Weather Roundup
Issued by NWS

Home | Current Version | Previous Version | Graphics & Text | Print | Product List | Glossary Off
Versions: 1 2 3 4 5 6 7 8 9 10 11 12 13 14 15 16 17 18 19 20 21 22 23 24 25 26 27 28 29 30 31 32 33 34 35 36 37 38 39 40 41 42 43 44 45 46 47 48 49 50

000
ASUS43 KTOP 200708
RWRKS

WEATHER ROUNDUP FOR KANSAS
NATIONAL WEATHER SERVICE GOODLAND KS
200 AM CDT WED SEP 20 2017

NOTE:  "FAIR" INDICATES FEW OR NO CLOUDS BELOW 12,000 FEET WITH NO
SIGNIFICANT WEATHER AND/OR OBSTRUCTIONS TO VISIBILITY.

KSZ001>006-013>018-027>032-041>047-200800-
NORTHWEST KANSAS

CITY           SKY/WX    TMP DP  RH WIND       PRES   REMARKS
GOODLAND       CLEAR     50  34  54 NW9       29.85R
HAYS           CLEAR     69  40  34 NW15      29.71R
HILL CITY      CLEAR     58  40  51 W6        29.77R
RUSSELL        PTCLDY    71  42  35 NW12      29.68R
$$

KSZ061>065-074>080-084>089-200800-
SOUTHWEST KANSAS

CITY           SKY/WX    TMP DP  RH WIND       PRES   REMARKS
DODGE CITY     CLEAR     72  60  66 NW20      29.74R
ELKHART          N/A     65  37  35 NW14        N/A
GARDEN CITY    CLEAR     63  38  39 N21       29.78R
GREAT BEND     CLOUDY    78  60  53 S21G31    29.64F
LIBERAL        PTCLDY    62  49  62 SW10      29.72R
PRATT          CLOUDY    76  57  53 S21       29.69S
$$

KSZ066>073-081>083-090>101-200800-
SOUTHEAST KANSAS

CITY           SKY/WX    TMP DP  RH WIND       PRES   REMARKS
CHANUTE        CLEAR     77  69  76 S13       29.77S
COFFEYVILLE    CLEAR     78  70  76 S12       29.77S
HUTCHINSON     CLOUDY    80  68  66 S20G29    29.68R
MEDICINE LODGE   N/A     77  59  53 S13       29.68S
NEWTON         PTCLDY    79  68  69 S28G35    29.70S
WICHITA INTL   CLOUDY    78  71  79 S18       29.71R
WICHITA JABRA  CLOUDY    79  71  76 S21G32    29.71S
WICHITA MCCONL CLOUDY    79  69  72 S17G28    29.71S
WINFIELD       CLEAR     78  71  79 S17G24    29.74S
$$

KSZ007>012-019>026-033>040-048>060-102>105-200800-
NORTHEAST KANSAS

CITY           SKY/WX    TMP DP  RH WIND       PRES   REMARKS
CONCORDIA      CLOUDY    80  68  66 S23G35    29.60R
EMPORIA        CLEAR     75  69  81 S18       29.71F
LAWRENCE       CLEAR     78  70  76 SE14      29.72F
MANHATTAN      CLOUDY    80  71  74 S16G23    29.65R
MARYSVILLE     PTCLDY    79  72  78 S17G28    29.63S
OLATHE IND     CLEAR     76  68  76 S13       29.75F
OLATHE EXE     CLEAR     75  69  81 S13       29.75F
SALINA         CLOUDY    83  68  60 S22G35    29.63S
TOPEKA BILLARD CLEAR     79  71  76 S16       29.69F
TOPEKA FORBES  CLEAR     79  71  76 S15G22    29.71F
$$




USA.gov is the U.S. government's official web portal to all federal, state and local government web resources and services.